Flag Weather past 2 weeks in Santiago, Chile

Now
59 °F

Passing clouds.


Feels Like: 58 °F
Forecast: 55 / 62 °F
Wind: 6 mph from Southeast

Location: Pudahuel

Current Time: Nov 29, 2014 at 12:58:08 AM

Latest Report: Nov 29, 2014 at 12:00 AM


Visibility: N/A

Pressure: 29.92 "Hg

Humidity: 55%

Dew point: 43 °F

Location of SantiagoLocation

Historic Weather in Santiago — Graph

°F

Santiago temperature yesterday

Maximum temperature yesterday: 75 °F (at 4:00 PM)
Minimum temperature yesterday: 54 °F (at 6:00 AM)
Average temperature yesterday: 64 °F

Past Weeks' High & Low Weather Summary

 TemperatureHumidityPressure
High86 °F (Nov 14, 4:00 PM)88% (Nov 18, 5:00 AM)30.09 "Hg (Nov 18, 5:00 AM)
Low46 °F (Nov 21, 7:00 AM)11% (Nov 26, 3:00 PM)29.86 "Hg (Nov 28, 4:00 PM)
Average65 °F49%29.99 "Hg
* Reported Nov 13 11:00 PM — Nov 28 11:00 PM, Santiago, Weather by CustomWeather, © 2014

Note: Actual official high and low records may vary slightly from our data, if they occured in-between our weather recording intervals... More about our weather records

Advertising

Santiago weather history for previous 24 hours

 ConditionsComfort  
Time TempWeatherWind HumidityBarometerVisibility
11:00 PM
Nov 28
61 °FPassing clouds.7 mph52%29.92 "HgN/A
10:00 PM64 °FPassing clouds.7 mph49%29.92 "HgN/A
9:00 PM64 °FPassing clouds.8 mph49%29.92 "HgN/A
8:00 PM66 °FOvercast.15 mph49%29.89 "HgN/A
7:00 PM66 °FOvercast.16 mph49%29.86 "HgN/A
6:00 PM68 °FOvercast.20 mph49%29.86 "HgN/A
5:00 PM73 °FOvercast.13 mph38%29.86 "HgN/A
4:00 PM75 °FOvercast.10 mph34%29.86 "HgN/A
3:00 PM73 °FOvercast.15 mph38%29.89 "HgN/A
2:00 PM73 °FOvercast.10 mph41%29.89 "HgN/A
1:00 PM73 °FOvercast.12 mph41%29.92 "HgN/A
12:00 PM72 °FPartly sunny.13 mph44%29.92 "HgN/A
11:00 AM68 °FPartly sunny.8 mph49%29.92 "HgN/A
10:00 AM64 °FBroken clouds.6 mph56%29.92 "HgN/A
9:00 AM61 °FPartly sunny.2 mph63%29.95 "HgN/A
8:00 AM57 °FScattered clouds.5 mph67%29.95 "HgN/A
7:00 AM54 °FPassing clouds.2 mph77%29.95 "Hg5 mi
6:00 AM54 °FClear.5 mph72%29.92 "Hg10 mi
4:00 AM55 °FClear.5 mph72%29.95 "Hg10 mi
3:00 AM55 °FClear.5 mph72%29.95 "Hg10 mi
2:00 AM57 °FClear.3 mph67%29.98 "Hg10 mi
1:00 AM61 °FClear.6 mph59%29.98 "Hg10 mi
12:00 AM61 °FPassing clouds.7 mph63%29.98 "HgN/A
Weather by CustomWeather, © 2014

See weather overviewHow to use our weather pages